User: anonymous   Login
Location: Mentone
(34.5413°N, 85.5351°W)
Time: 14:53:04
(UTC-05:00)
Language:

Cosmos 2026 Rocket - Orbit

View from above orbital plane
View from above orbital plane
View from above satellite
View from above satellite

Ground track
Ground track

The orbit data is extracted from the following two-line orbital elements,

1 20046U 89042B   18174.51839271  .00000095  00000-0  78168-4 0  9990
2 20046  82.9373  26.4709 0043421 106.8432 253.7495 13.78125290460397
Epoch (UTC): 23 June 2018 12:26:29
Eccentricity: 0.0043421
inclination: 82.9373°
perigee height: 938 km
apogee height: 1002 km
right ascension of ascending node: 26.4709°
argument of perigee: 106.8432°
revolutions per day: 13.78125290
mean anomaly at epoch: 253.7495°
orbit number at epoch: 46039

The dashed part of the orbit path shows where the satellite is in the earth's shadow,  

DLR